Location: Boss Branch
(32.3799°N, 97.2508°W)
Time: 13:07:46
(UTC+00:00)

deb Explorer IX - Pass Details

Date: 12 November 2024
Orbit: 492 x 761 km, 38.7° (Epoch: 01 December)

Event Time Altitude Azimuth Distance (km) Brightness Sun altitude
Rises 01:51:49 0° 262° (W) 3,084 ? -29.9°
Reaches altitude 10° 01:54:12 10° 267° (W) 2,210 ? -30.4°
Enters shadow 01:58:11 46° 301° (WNW) 1,007 ? -31.3°
